Time,TemperatureF,DewpointF,PressureIn,WindDirection,WindDirectionDegrees,WindSpeedMPH,WindSpeedGustMPH,Humidity,HourlyPrecipIn,Conditions,Clouds,dailyrainin,SoftwareType,DateUTC
2013-03-17 00:00:00,64.1,49.5,29.96,WSW,250,2.0,2.0,59,0.00,,,0.00,Wunderground v.1.15,2013-03-17 04:00:00,
2013-03-17 00:05:00,64.1,49.9,29.96,West,260,1.0,2.0,60,0.00,,,0.00,Wunderground v.1.15,2013-03-17 04:05:00,
2013-03-17 00:09:00,64.0,49.4,29.96,WSW,252,2.0,3.0,59,0.00,,,0.00,Wunderground v.1.15,2013-03-17 04:09:00,
2013-03-17 00:14:00,63.9,49.7,29.96,WSW,252,1.0,1.0,60,0.00,,,0.00,Wunderground v.1.15,2013-03-17 04:14:00,
2013-03-17 00:16:00,63.8,49.6,29.96,WSW,252,1.0,1.0,60,0.00,,,0.00,Wunderground v.1.15,2013-03-17 04:16:00,
2013-03-17 00:22:00,63.6,49.5,29.97,WSW,252,1.0,1.0,60,0.00,,,0.00,Wunderground v.1.15,2013-03-17 04:22:00,
2013-03-17 00:28:00,63.6,49.5,29.97,WSW,252,1.0,2.0,60,0.00,,,0.00,Wunderground v.1.15,2013-03-17 04:28:00,
2013-03-17 00:33:00,63.4,49.3,29.97,WSW,252,0.0,1.0,60,0.00,,,0.00,Wunderground v.1.15,2013-03-17 04:33:00,
2013-03-17 00:38:00,63.2,49.1,29.97,WSW,252,0.0,1.0,60,0.00,,,0.00,Wunderground v.1.15,2013-03-17 04:38:00,
2013-03-17 00:44:00,63.0,49.3,29.97,West,270,2.0,3.0,61,0.00,,,0.00,Wunderground v.1.15,2013-03-17 04:44:00,
2013-03-17 00:49:00,62.9,49.2,29.97,West,270,1.0,3.0,61,0.00,,,0.00,Wunderground v.1.15,2013-03-17 04:49:00,
2013-03-17 00:54:00,62.7,49.1,29.96,West,270,0.0,1.0,61,0.00,,,0.00,Wunderground v.1.15,2013-03-17 04:54:00,
2013-03-17 00:59:00,62.2,49.0,29.96,West,270,0.0,0.0,62,0.00,,,0.00,Wunderground v.1.15,2013-03-17 04:59:00,
2013-03-17 01:05:00,61.8,48.6,29.96,West,270,1.0,2.0,62,0.00,,,0.00,Wunderground v.1.15,2013-03-17 05:05:00,
2013-03-17 01:10:00,61.7,48.5,29.96,West,270,1.0,1.0,62,0.00,,,0.00,Wunderground v.1.15,2013-03-17 05:10:00,
2013-03-17 01:15:00,61.9,48.7,29.96,West,270,1.0,1.0,62,0.00,,,0.00,Wunderground v.1.15,2013-03-17 05:15:00,
2013-03-17 01:20:00,61.9,48.7,29.96,West,270,0.0,0.0,62,0.00,,,0.00,Wunderground v.1.15,2013-03-17 05:20:00,
2013-03-17 01:25:00,61.7,49.0,29.96,West,270,0.0,1.0,63,0.00,,,0.00,Wunderground v.1.15,2013-03-17 05:25:00,
2013-03-17 01:31:00,61.2,48.5,29.96,South,171,1.0,2.0,63,0.00,,,0.00,Wunderground v.1.15,2013-03-17 05:31:00,
2013-03-17 01:36:00,60.6,48.4,29.96,South,171,0.0,2.0,64,0.00,,,0.00,Wunderground v.1.15,2013-03-17 05:36:00,
2013-03-17 01:41:00,59.9,48.5,29.96,South,171,0.0,0.0,66,0.00,,,0.00,Wunderground v.1.15,2013-03-17 05:41:00,
2013-03-17 01:47:00,59.1,48.1,29.96,South,171,0.0,0.0,67,0.00,,,0.00,Wunderground v.1.15,2013-03-17 05:47:00,
2013-03-17 01:52:00,58.7,47.8,29.96,South,171,0.0,0.0,67,0.00,,,0.00,Wunderground v.1.15,2013-03-17 05:52:00,
2013-03-17 01:57:00,58.1,47.6,29.97,South,171,0.0,0.0,68,0.00,,,0.00,Wunderground v.1.15,2013-03-17 05:57:00,
2013-03-17 02:02:00,57.5,47.4,29.97,South,171,0.0,0.0,69,0.00,,,0.00,Wunderground v.1.15,2013-03-17 06:02:00,
2013-03-17 02:07:00,57.0,46.9,29.97,South,171,0.0,0.0,69,0.00,,,0.00,Wunderground v.1.15,2013-03-17 06:07:00,
2013-03-17 02:12:00,56.6,47.3,29.97,South,171,0.0,1.0,71,0.00,,,0.00,Wunderground v.1.15,2013-03-17 06:12:00,
2013-03-17 02:17:00,56.2,46.9,29.97,South,171,0.0,1.0,71,0.00,,,0.00,Wunderground v.1.15,2013-03-17 06:17:00,
2013-03-17 02:22:00,55.8,46.9,29.97,South,171,0.0,0.0,72,0.00,,,0.00,Wunderground v.1.15,2013-03-17 06:22:00,
2013-03-17 02:27:00,55.6,46.7,29.97,South,171,0.0,1.0,72,0.00,,,0.00,Wunderground v.1.15,2013-03-17 06:27:00,
2013-03-17 02:32:00,55.5,47.0,29.97,South,171,0.0,1.0,73,0.00,,,0.00,Wunderground v.1.15,2013-03-17 06:32:00,
2013-03-17 02:37:00,55.3,46.4,29.97,South,171,0.0,1.0,72,0.00,,,0.00,Wunderground v.1.15,2013-03-17 06:37:00,
2013-03-17 02:42:00,55.2,47.1,29.98,South,171,0.0,0.0,74,0.00,,,0.00,Wunderground v.1.15,2013-03-17 06:42:00,
2013-03-17 02:47:00,55.1,46.6,29.98,South,171,0.0,0.0,73,0.00,,,0.00,Wunderground v.1.15,2013-03-17 06:47:00,
2013-03-17 02:52:00,55.1,46.6,29.97,South,171,0.0,1.0,73,0.00,,,0.00,Wunderground v.1.15,2013-03-17 06:52:00,
2013-03-17 02:57:00,55.1,46.6,29.97,South,171,0.0,1.0,73,0.00,,,0.00,Wunderground v.1.15,2013-03-17 06:57:00,
2013-03-17 03:02:00,55.1,47.0,29.97,South,171,0.0,0.0,74,0.00,,,0.00,Wunderground v.1.15,2013-03-17 07:02:00,
2013-03-17 03:07:00,55.1,47.0,29.97,South,171,0.0,1.0,74,0.00,,,0.00,Wunderground v.1.15,2013-03-17 07:07:00,
2013-03-17 03:12:00,55.1,47.0,29.97,South,171,1.0,1.0,74,0.00,,,0.00,Wunderground v.1.15,2013-03-17 07:12:00,
2013-03-17 03:17:00,54.9,46.8,29.97,South,171,0.0,1.0,74,0.00,,,0.00,Wunderground v.1.15,2013-03-17 07:17:00,
2013-03-17 03:22:00,54.8,46.3,29.97,South,171,0.0,0.0,73,0.00,,,0.00,Wunderground v.1.15,2013-03-17 07:22:00,
2013-03-17 03:27:00,54.8,46.7,29.97,South,171,0.0,0.0,74,0.00,,,0.00,Wunderground v.1.15,2013-03-17 07:27:00,
2013-03-17 03:32:00,54.7,46.6,29.97,South,171,0.0,0.0,74,0.00,,,0.00,Wunderground v.1.15,2013-03-17 07:32:00,
2013-03-17 03:37:00,54.6,46.8,29.97,South,171,0.0,1.0,75,0.00,,,0.00,Wunderground v.1.15,2013-03-17 07:37:00,
2013-03-17 03:42:00,54.3,46.5,29.97,South,171,0.0,1.0,75,0.00,,,0.00,Wunderground v.1.15,2013-03-17 07:42:00,
2013-03-17 03:48:00,54.3,46.5,29.96,South,171,0.0,1.0,75,0.00,,,0.00,Wunderground v.1.15,2013-03-17 07:48:00,
2013-03-17 03:53:00,54.4,46.6,29.96,South,171,0.0,1.0,75,0.00,,,0.00,Wunderground v.1.15,2013-03-17 07:53:00,
2013-03-17 03:58:00,54.5,46.7,29.96,South,171,0.0,1.0,75,0.00,,,0.00,Wunderground v.1.15,2013-03-17 07:58:00,
2013-03-17 04:03:00,54.6,46.5,29.96,South,171,0.0,1.0,74,0.00,,,0.00,Wunderground v.1.15,2013-03-17 08:03:00,
2013-03-17 04:08:00,54.8,46.7,29.96,South,171,1.0,1.0,74,0.00,,,0.00,Wunderground v.1.15,2013-03-17 08:08:00,
2013-03-17 04:13:00,55.1,46.6,29.96,South,171,0.0,0.0,73,0.00,,,0.00,Wunderground v.1.15,2013-03-17 08:13:00,
2013-03-17 04:18:00,55.2,46.7,29.96,South,171,0.0,0.0,73,0.00,,,0.00,Wunderground v.1.15,2013-03-17 08:18:00,
2013-03-17 04:23:00,55.3,46.8,29.96,South,171,0.0,0.0,73,0.00,,,0.00,Wunderground v.1.15,2013-03-17 08:23:00,
2013-03-17 04:28:00,55.3,46.8,29.96,South,171,0.0,0.0,73,0.00,,,0.00,Wunderground v.1.15,2013-03-17 08:28:00,
2013-03-17 04:33:00,55.2,46.7,29.96,South,171,0.0,0.0,73,0.00,,,0.00,Wunderground v.1.15,2013-03-17 08:33:00,
2013-03-17 04:38:00,55.0,46.9,29.96,South,171,0.0,1.0,74,0.00,,,0.00,Wunderground v.1.15,2013-03-17 08:38:00,
2013-03-17 04:43:00,54.7,46.6,29.96,South,171,0.0,0.0,74,0.00,,,0.00,Wunderground v.1.15,2013-03-17 08:43:00,
2013-03-17 04:48:00,54.5,46.4,29.97,SE,134,1.0,1.0,74,0.00,,,0.00,Wunderground v.1.15,2013-03-17 08:48:00,
2013-03-17 04:53:00,54.2,46.4,29.96,SE,132,0.0,1.0,75,0.00,,,0.00,Wunderground v.1.15,2013-03-17 08:53:00,
2013-03-17 04:58:00,54.0,46.6,29.97,SE,132,0.0,1.0,76,0.00,,,0.00,Wunderground v.1.15,2013-03-17 08:58:00,
2013-03-17 05:03:00,53.7,46.3,29.97,SE,132,0.0,1.0,76,0.00,,,0.00,Wunderground v.1.15,2013-03-17 09:03:00,
2013-03-17 05:08:00,53.5,46.1,29.96,SE,132,0.0,1.0,76,0.00,,,0.00,Wunderground v.1.15,2013-03-17 09:08:00,
2013-03-17 05:13:00,53.4,46.4,29.96,SE,132,1.0,1.0,77,0.00,,,0.00,Wunderground v.1.15,2013-03-17 09:13:00,
2013-03-17 05:18:00,53.2,46.2,29.97,SE,132,0.0,1.0,77,0.00,,,0.00,Wunderground v.1.15,2013-03-17 09:18:00,
2013-03-17 05:23:00,53.0,46.0,29.97,SE,132,0.0,0.0,77,0.00,,,0.00,Wunderground v.1.15,2013-03-17 09:23:00,
2013-03-17 05:28:00,52.8,46.1,29.97,SE,132,0.0,0.0,78,0.00,,,0.00,Wunderground v.1.15,2013-03-17 09:28:00,
2013-03-17 05:33:00,52.6,46.3,29.97,SE,132,0.0,2.0,79,0.00,,,0.00,Wunderground v.1.15,2013-03-17 09:33:00,
2013-03-17 05:39:00,52.3,46.0,29.96,SE,132,0.0,2.0,79,0.00,,,0.00,Wunderground v.1.15,2013-03-17 09:39:00,
2013-03-17 05:44:00,52.2,45.9,29.96,SE,132,0.0,0.0,79,0.00,,,0.00,Wunderground v.1.15,2013-03-17 09:44:00,
2013-03-17 05:49:00,52.0,46.0,29.97,SE,132,0.0,0.0,80,0.00,,,0.00,Wunderground v.1.15,2013-03-17 09:49:00,
2013-03-17 05:54:00,51.8,46.2,29.97,SE,132,1.0,1.0,81,0.00,,,0.00,Wunderground v.1.15,2013-03-17 09:54:00,
2013-03-17 05:59:00,51.5,45.9,29.97,SE,132,0.0,1.0,81,0.00,,,0.00,Wunderground v.1.15,2013-03-17 09:59:00,
2013-03-17 06:04:00,51.3,45.7,29.97,SE,132,0.0,2.0,81,0.00,,,0.00,Wunderground v.1.15,2013-03-17 10:04:00,
2013-03-17 06:09:00,51.2,45.9,29.97,SE,132,0.0,2.0,82,0.00,,,0.00,Wunderground v.1.15,2013-03-17 10:09:00,
2013-03-17 06:14:00,51.0,45.7,29.96,SE,132,0.0,2.0,82,0.00,,,0.00,Wunderground v.1.15,2013-03-17 10:14:00,
2013-03-17 06:19:00,51.0,45.7,29.96,SE,132,0.0,2.0,82,0.00,,,0.00,Wunderground v.1.15,2013-03-17 10:19:00,
2013-03-17 06:24:00,50.8,45.5,29.96,SE,129,0.0,2.0,82,0.00,,,0.00,Wunderground v.1.15,2013-03-17 10:24:00,
2013-03-17 06:29:00,50.8,45.5,29.97,SE,129,0.0,2.0,82,0.00,,,0.00,Wunderground v.1.15,2013-03-17 10:29:00,
2013-03-17 06:34:00,50.9,45.6,29.97,SE,129,0.0,1.0,82,0.00,,,0.00,Wunderground v.1.15,2013-03-17 10:34:00,
2013-03-17 06:39:00,50.9,45.6,29.97,SE,129,0.0,1.0,82,0.00,,,0.00,Wunderground v.1.15,2013-03-17 10:39:00,
2013-03-17 06:44:00,50.9,45.6,29.97,SE,129,0.0,0.0,82,0.00,,,0.00,Wunderground v.1.15,2013-03-17 10:44:00,
2013-03-17 06:49:00,50.8,45.8,29.97,SE,129,0.0,1.0,83,0.00,,,0.00,Wunderground v.1.15,2013-03-17 10:49:00,
2013-03-17 06:54:00,50.6,45.6,29.98,SE,129,0.0,1.0,83,0.00,,,0.00,Wunderground v.1.15,2013-03-17 10:54:00,
2013-03-17 06:59:00,50.4,45.4,29.98,SE,129,0.0,1.0,83,0.00,,,0.00,Wunderground v.1.15,2013-03-17 10:59:00,
2013-03-17 07:05:00,50.2,45.6,29.98,SE,129,0.0,0.0,84,0.00,,,0.00,Wunderground v.1.15,2013-03-17 11:05:00,
2013-03-17 07:10:00,50.0,45.4,29.98,SE,129,1.0,2.0,84,0.00,,,0.00,Wunderground v.1.15,2013-03-17 11:10:00,
2013-03-17 07:15:00,49.8,45.5,29.98,SE,129,0.0,2.0,85,0.00,,,0.00,Wunderground v.1.15,2013-03-17 11:15:00,
2013-03-17 07:20:00,49.6,45.3,29.98,SE,129,0.0,0.0,85,0.00,,,0.00,Wunderground v.1.15,2013-03-17 11:20:00,
2013-03-17 07:25:00,49.5,45.2,29.98,SE,129,0.0,0.0,85,0.00,,,0.00,Wunderground v.1.15,2013-03-17 11:25:00,
2013-03-17 07:30:00,49.4,45.1,29.98,SE,129,0.0,0.0,85,0.00,,,0.00,Wunderground v.1.15,2013-03-17 11:30:00,
2013-03-17 07:35:00,49.3,45.0,29.99,SE,129,0.0,0.0,85,0.00,,,0.00,Wunderground v.1.15,2013-03-17 11:35:00,
2013-03-17 07:40:00,49.3,45.0,29.99,SE,129,0.0,0.0,85,0.00,,,0.00,Wunderground v.1.15,2013-03-17 11:40:00,
2013-03-17 07:45:00,49.3,45.3,29.99,SE,129,0.0,0.0,86,0.00,,,0.00,Wunderground v.1.15,2013-03-17 11:45:00,
2013-03-17 07:50:00,49.0,45.0,29.99,SE,129,0.0,0.0,86,0.00,,,0.00,Wunderground v.1.15,2013-03-17 11:50:00,
2013-03-17 07:55:00,48.9,44.9,29.99,SE,129,0.0,0.0,86,0.00,,,0.00,Wunderground v.1.15,2013-03-17 11:55:00,
2013-03-17 08:00:00,48.8,45.1,29.99,SE,129,0.0,0.0,87,0.00,,,0.00,Wunderground v.1.15,2013-03-17 12:00:00,
2013-03-17 08:05:00,48.6,44.9,29.99,SE,129,0.0,0.0,87,0.00,,,0.00,Wunderground v.1.15,2013-03-17 12:05:00,
2013-03-17 08:10:00,48.6,44.9,30.00,SE,129,0.0,0.0,87,0.00,,,0.00,Wunderground v.1.15,2013-03-17 12:10:00,
2013-03-17 08:15:00,48.5,45.1,29.99,SE,129,0.0,1.0,88,0.00,,,0.00,Wunderground v.1.15,2013-03-17 12:15:00,
2013-03-17 08:20:00,48.5,45.1,30.00,SE,129,0.0,0.0,88,0.00,,,0.00,Wunderground v.1.15,2013-03-17 12:20:00,
2013-03-17 08:25:00,48.6,45.2,30.00,SE,129,0.0,0.0,88,0.00,,,0.00,Wunderground v.1.15,2013-03-17 12:25:00,
2013-03-17 08:30:00,48.8,45.7,30.00,SE,129,0.0,0.0,89,0.00,,,0.00,Wunderground v.1.15,2013-03-17 12:30:00,
2013-03-17 08:35:00,48.9,45.8,30.00,SE,129,0.0,0.0,89,0.00,,,0.00,Wunderground v.1.15,2013-03-17 12:35:00,
2013-03-17 08:40:00,49.0,45.9,30.01,SE,129,0.0,0.0,89,0.00,,,0.00,Wunderground v.1.15,2013-03-17 12:40:00,
2013-03-17 08:45:00,49.2,46.1,30.01,SE,129,1.0,1.0,89,0.00,,,0.00,Wunderground v.1.15,2013-03-17 12:45:00,
2013-03-17 08:50:00,49.4,46.3,30.01,SE,129,0.0,0.0,89,0.00,,,0.00,Wunderground v.1.15,2013-03-17 12:50:00,
2013-03-17 08:55:00,49.6,46.5,30.01,SE,129,0.0,0.0,89,0.00,,,0.00,Wunderground v.1.15,2013-03-17 12:55:00,
2013-03-17 09:00:00,49.9,46.8,30.01,SE,129,0.0,0.0,89,0.00,,,0.00,Wunderground v.1.15,2013-03-17 13:00:00,
2013-03-17 09:05:00,50.2,47.1,30.01,SE,129,0.0,0.0,89,0.00,,,0.00,Wunderground v.1.15,2013-03-17 13:05:00,
2013-03-17 09:10:00,50.5,47.4,30.01,SE,129,0.0,0.0,89,0.00,,,0.00,Wunderground v.1.15,2013-03-17 13:10:00,
2013-03-17 09:15:00,51.0,47.6,30.01,SE,129,0.0,1.0,88,0.00,,,0.00,Wunderground v.1.15,2013-03-17 13:15:00,
2013-03-17 09:20:00,51.3,47.6,30.01,SE,129,0.0,0.0,87,0.00,,,0.00,Wunderground v.1.15,2013-03-17 13:20:00,
2013-03-17 09:25:00,51.8,48.4,30.01,SE,129,0.0,0.0,88,0.00,,,0.00,Wunderground v.1.15,2013-03-17 13:25:00,
2013-03-17 09:31:00,52.2,48.8,30.01,SE,129,0.0,0.0,88,0.00,,,0.00,Wunderground v.1.15,2013-03-17 13:31:00,
2013-03-17 09:36:00,52.6,48.8,30.01,SE,129,0.0,0.0,87,0.00,,,0.00,Wunderground v.1.15,2013-03-17 13:36:00,
2013-03-17 09:41:00,53.0,48.6,30.01,SE,129,0.0,0.0,85,0.00,,,0.00,Wunderground v.1.15,2013-03-17 13:41:00,
2013-03-17 09:46:00,53.6,48.6,30.01,SE,129,0.0,0.0,83,0.00,,,0.00,Wunderground v.1.15,2013-03-17 13:46:00,
2013-03-17 09:51:00,54.2,49.1,30.01,SE,129,0.0,0.0,83,0.00,,,0.00,Wunderground v.1.15,2013-03-17 13:51:00,
2013-03-17 09:56:00,54.9,49.5,30.01,SE,129,0.0,0.0,82,0.00,,,0.00,Wunderground v.1.15,2013-03-17 13:56:00,
2013-03-17 10:01:00,55.6,49.2,30.01,SE,129,0.0,0.0,79,0.00,,,0.00,Wunderground v.1.15,2013-03-17 14:01:00,
2013-03-17 10:07:00,56.4,49.3,30.02,SE,129,0.0,3.0,77,0.00,,,0.00,Wunderground v.1.15,2013-03-17 14:07:00,
2013-03-17 10:12:00,57.0,49.5,30.02,SE,129,0.0,1.0,76,0.00,,,0.00,Wunderground v.1.15,2013-03-17 14:12:00,
2013-03-17 10:17:00,57.6,50.1,30.02,SE,133,1.0,2.0,76,0.00,,,0.00,Wunderground v.1.15,2013-03-17 14:17:00,
2013-03-17 10:22:00,58.1,49.5,30.02,SE,138,3.0,3.0,73,0.00,,,0.00,Wunderground v.1.15,2013-03-17 14:22:00,
2013-03-17 10:27:00,58.6,50.0,30.02,South,172,1.0,4.0,73,0.00,,,0.00,Wunderground v.1.15,2013-03-17 14:27:00,
2013-03-17 10:32:00,58.8,50.2,30.02,South,172,0.0,1.0,73,0.00,,,0.00,Wunderground v.1.15,2013-03-17 14:32:00,
2013-03-17 10:37:00,59.3,50.6,30.02,South,172,0.0,1.0,73,0.00,,,0.00,Wunderground v.1.15,2013-03-17 14:37:00,
2013-03-17 10:42:00,59.9,50.5,30.02,South,171,0.0,2.0,71,0.00,,,0.00,Wunderground v.1.15,2013-03-17 14:42:00,
2013-03-17 10:47:00,60.3,50.9,30.02,SSE,167,1.0,2.0,71,0.00,,,0.00,Wunderground v.1.15,2013-03-17 14:47:00,
2013-03-17 10:52:00,60.8,51.3,30.02,SSE,161,0.0,3.0,71,0.00,,,0.00,Wunderground v.1.15,2013-03-17 14:52:00,
2013-03-17 10:57:00,61.4,51.5,30.02,SSE,161,0.0,3.0,70,0.00,,,0.00,Wunderground v.1.15,2013-03-17 14:57:00,
2013-03-17 11:02:00,61.9,51.6,30.02,SSE,147,0.0,2.0,69,0.00,,,0.00,Wunderground v.1.15,2013-03-17 15:02:00,
2013-03-17 11:07:00,62.4,51.3,30.01,SSE,147,1.0,2.0,67,0.00,,,0.00,Wunderground v.1.15,2013-03-17 15:07:00,
2013-03-17 11:12:00,62.9,51.4,30.02,SSE,164,0.0,1.0,66,0.00,,,0.00,Wunderground v.1.15,2013-03-17 15:12:00,
2013-03-17 11:17:00,63.3,51.3,30.01,South,178,0.0,3.0,65,0.00,,,0.00,Wunderground v.1.15,2013-03-17 15:17:00,
2013-03-17 11:22:00,63.7,51.7,30.01,South,178,0.0,2.0,65,0.00,,,0.00,Wunderground v.1.15,2013-03-17 15:22:00,
2013-03-17 11:27:00,64.2,51.8,30.01,South,178,1.0,2.0,64,0.00,,,0.00,Wunderground v.1.15,2013-03-17 15:27:00,
2013-03-17 11:32:00,64.6,52.6,30.01,SE,146,1.0,3.0,65,0.00,,,0.00,Wunderground v.1.15,2013-03-17 15:32:00,
2013-03-17 11:37:00,65.0,52.5,30.01,SE,139,0.0,3.0,64,0.00,,,0.00,Wunderground v.1.15,2013-03-17 15:37:00,
2013-03-17 11:42:00,65.7,53.2,30.01,South,171,3.0,3.0,64,0.00,,,0.00,Wunderground v.1.15,2013-03-17 15:42:00,
2013-03-17 11:47:00,66.2,52.8,30.01,ENE,71,0.0,5.0,62,0.00,,,0.00,Wunderground v.1.15,2013-03-17 15:47:00,
2013-03-17 11:52:00,66.5,52.6,30.01,ENE,62,1.0,3.0,61,0.00,,,0.00,Wunderground v.1.15,2013-03-17 15:52:00,
2013-03-17 11:57:00,67.0,53.1,30.00,NE,44,1.0,3.0,61,0.00,,,0.00,Wunderground v.1.15,2013-03-17 15:57:00,
2013-03-17 12:02:00,67.5,53.1,30.00,South,177,0.0,3.0,60,0.00,,,0.00,Wunderground v.1.15,2013-03-17 16:02:00,
2013-03-17 12:07:00,68.0,52.7,30.00,South,177,0.0,3.0,58,0.00,,,0.00,Wunderground v.1.15,2013-03-17 16:07:00,
2013-03-17 12:12:00,68.5,53.1,30.01,SE,138,3.0,3.0,58,0.00,,,0.00,Wunderground v.1.15,2013-03-17 16:12:00,
2013-03-17 12:17:00,69.0,53.1,30.00,South,180,0.0,3.0,57,0.00,,,0.00,Wunderground v.1.15,2013-03-17 16:17:00,
2013-03-17 12:22:00,69.4,53.5,30.00,NE,55,1.0,3.0,57,0.00,,,0.00,Wunderground v.1.15,2013-03-17 16:22:00,
2013-03-17 12:27:00,69.6,54.2,30.00,North,355,0.0,4.0,58,0.00,,,0.00,Wunderground v.1.15,2013-03-17 16:27:00,
2013-03-17 12:32:00,69.9,53.5,30.00,North,355,0.0,3.0,56,0.00,,,0.00,Wunderground v.1.15,2013-03-17 16:32:00,
2013-03-17 12:37:00,70.4,54.0,30.00,NNW,340,0.0,3.0,56,0.00,,,0.00,Wunderground v.1.15,2013-03-17 16:37:00,
2013-03-17 12:43:00,70.4,54.0,30.00,NNE,18,1.0,3.0,56,0.00,,,0.00,Wunderground v.1.15,2013-03-17 16:43:00,
2013-03-17 12:48:00,70.2,53.8,30.00,North,9,1.0,3.0,56,0.00,,,0.00,Wunderground v.1.15,2013-03-17 16:48:00,
2013-03-17 12:53:00,69.9,53.0,30.00,NW,314,0.0,4.0,55,0.00,,,0.00,Wunderground v.1.15,2013-03-17 16:53:00,
2013-03-17 12:58:00,69.6,53.2,29.99,NW,314,0.0,4.0,56,0.00,,,0.00,Wunderground v.1.15,2013-03-17 16:58:00,
2013-03-17 13:03:00,69.8,52.9,29.99,NNE,16,0.0,3.0,55,0.00,,,0.00,Wunderground v.1.15,2013-03-17 17:03:00,
2013-03-17 13:08:00,69.9,53.0,29.98,NNE,16,0.0,3.0,55,0.00,,,0.00,Wunderground v.1.15,2013-03-17 17:08:00,
2013-03-17 13:13:00,69.9,52.5,29.98,South,169,0.0,4.0,54,0.00,,,0.00,Wunderground v.1.15,2013-03-17 17:13:00,
2013-03-17 13:18:00,70.0,52.1,29.98,NE,56,0.0,4.0,53,0.00,,,0.00,Wunderground v.1.15,2013-03-17 17:18:00,
2013-03-17 13:23:00,70.0,52.1,29.98,ENE,59,0.0,1.0,53,0.00,,,0.00,Wunderground v.1.15,2013-03-17 17:23:00,
2013-03-17 13:28:00,69.9,53.5,29.97,ENE,59,1.0,1.0,56,0.00,,,0.00,Wunderground v.1.15,2013-03-17 17:28:00,
2013-03-17 13:33:00,70.0,52.6,29.97,ENE,59,0.0,1.0,54,0.00,,,0.00,Wunderground v.1.15,2013-03-17 17:33:00,
2013-03-17 13:38:00,70.0,52.6,29.97,ENE,59,0.0,2.0,54,0.00,,,0.00,Wunderground v.1.15,2013-03-17 17:38:00,
2013-03-17 13:43:00,70.1,52.2,29.96,South,174,2.0,4.0,53,0.00,,,0.00,Wunderground v.1.15,2013-03-17 17:43:00,
2013-03-17 13:48:00,70.5,51.5,29.96,SSW,206,0.0,5.0,51,0.00,,,0.00,Wunderground v.1.15,2013-03-17 17:48:00,
2013-03-17 13:53:00,70.9,52.9,29.96,South,190,1.0,4.0,53,0.00,,,0.00,Wunderground v.1.15,2013-03-17 17:53:00,
2013-03-17 13:58:00,71.5,51.9,29.96,WSW,245,1.0,4.0,50,0.00,,,0.00,Wunderground v.1.15,2013-03-17 17:58:00,
2013-03-17 14:03:00,72.0,52.9,29.95,NW,310,0.0,3.0,51,0.00,,,0.00,Wunderground v.1.15,2013-03-17 18:03:00,
2013-03-17 14:08:00,72.4,51.6,29.95,SSE,157,2.0,9.0,48,0.00,,,0.00,Wunderground v.1.15,2013-03-17 18:08:00,
2013-03-17 14:13:00,72.5,52.2,29.94,SSE,163,0.0,10.0,49,0.00,,,0.00,Wunderground v.1.15,2013-03-17 18:13:00,
2013-03-17 14:18:00,72.6,52.3,29.94,ESE,115,0.0,10.0,49,0.00,,,0.00,Wunderground v.1.15,2013-03-17 18:18:00,
2013-03-17 14:23:00,72.8,53.1,29.94,East,84,1.0,4.0,50,0.00,,,0.00,Wunderground v.1.15,2013-03-17 18:23:00,
2013-03-17 14:28:00,72.8,52.0,29.93,SSW,201,2.0,6.0,48,0.00,,,0.00,Wunderground v.1.15,2013-03-17 18:28:00,
2013-03-17 14:33:00,72.9,52.1,29.93,ESE,115,2.0,7.0,48,0.00,,,0.00,Wunderground v.1.15,2013-03-17 18:33:00,
2013-03-17 14:38:00,72.9,52.1,29.93,South,174,2.0,7.0,48,0.00,,,0.00,Wunderground v.1.15,2013-03-17 18:38:00,
2013-03-17 14:43:00,72.6,50.6,29.93,South,176,0.0,7.0,46,0.00,,,0.00,Wunderground v.1.15,2013-03-17 18:43:00,
2013-03-17 14:48:00,72.4,52.2,29.93,South,188,0.0,7.0,49,0.00,,,0.00,Wunderground v.1.15,2013-03-17 18:48:00,
2013-03-17 14:53:00,72.4,51.6,29.92,SSE,158,1.0,10.0,48,0.00,,,0.00,Wunderground v.1.15,2013-03-17 18:53:00,
2013-03-17 14:58:00,72.3,52.6,29.92,South,169,2.0,12.0,50,0.00,,,0.00,Wunderground v.1.15,2013-03-17 18:58:00,
2013-03-17 15:03:00,72.4,53.8,29.92,NNE,25,0.0,3.0,52,0.00,,,0.00,Wunderground v.1.15,2013-03-17 19:03:00,
2013-03-17 15:09:00,72.7,53.5,29.92,South,178,3.0,5.0,51,0.00,,,0.00,Wunderground v.1.15,2013-03-17 19:09:00,
2013-03-17 15:14:00,72.6,54.0,29.92,South,182,2.0,7.0,52,0.00,,,0.00,Wunderground v.1.15,2013-03-17 19:14:00,
2013-03-17 15:19:00,72.3,53.7,29.91,SSW,198,1.0,7.0,52,0.00,,,0.00,Wunderground v.1.15,2013-03-17 19:19:00,
2013-03-17 15:24:00,72.1,53.5,29.91,SSE,163,6.0,11.0,52,0.00,,,0.00,Wunderground v.1.15,2013-03-17 19:24:00,
2013-03-17 15:29:00,72.0,53.4,29.91,South,178,7.0,11.0,52,0.00,,,0.00,Wunderground v.1.15,2013-03-17 19:29:00,
2013-03-17 15:34:00,71.9,52.8,29.92,SSW,196,1.0,5.0,51,0.00,,,0.00,Wunderground v.1.15,2013-03-17 19:34:00,
2013-03-17 15:39:00,72.0,53.4,29.92,SSW,203,1.0,5.0,52,0.00,,,0.00,Wunderground v.1.15,2013-03-17 19:39:00,
2013-03-17 15:44:00,71.9,52.8,29.92,SSW,203,1.0,2.0,51,0.00,,,0.00,Wunderground v.1.15,2013-03-17 19:44:00,
2013-03-17 15:49:00,71.9,53.8,29.92,South,169,0.0,9.0,53,0.00,,,0.00,Wunderground v.1.15,2013-03-17 19:49:00,
2013-03-17 15:54:00,72.1,53.0,29.91,WNW,292,1.0,4.0,51,0.00,,,0.00,Wunderground v.1.15,2013-03-17 19:54:00,
2013-03-17 15:59:00,71.9,53.8,29.92,SSE,153,9.0,9.0,53,0.00,,,0.00,Wunderground v.1.15,2013-03-17 19:59:00,
2013-03-17 16:04:00,71.6,53.0,29.91,South,184,3.0,4.0,52,0.00,,,0.00,Wunderground v.1.15,2013-03-17 20:04:00,
2013-03-17 16:09:00,71.4,53.4,29.91,NE,39,3.0,5.0,53,0.00,,,0.00,Wunderground v.1.15,2013-03-17 20:09:00,
2013-03-17 16:14:00,71.1,53.1,29.91,South,178,0.0,6.0,53,0.00,,,0.00,Wunderground v.1.15,2013-03-17 20:14:00,
2013-03-17 16:19:00,70.9,52.9,29.92,South,176,2.0,7.0,53,0.00,,,0.00,Wunderground v.1.15,2013-03-17 20:19:00,
2013-03-17 16:24:00,70.7,52.7,29.92,West,275,2.0,3.0,53,0.00,,,0.00,Wunderground v.1.15,2013-03-17 20:24:00,
2013-03-17 16:29:00,70.4,51.9,29.92,NW,323,0.0,4.0,52,0.00,,,0.00,Wunderground v.1.15,2013-03-17 20:29:00,
2013-03-17 16:34:00,70.2,52.3,29.92,West,275,3.0,4.0,53,0.00,,,0.00,Wunderground v.1.15,2013-03-17 20:34:00,
2013-03-17 16:39:00,70.0,52.1,29.92,West,275,0.0,4.0,53,0.00,,,0.00,Wunderground v.1.15,2013-03-17 20:39:00,
2013-03-17 16:44:00,69.9,52.5,29.92,SW,219,1.0,4.0,54,0.00,,,0.00,Wunderground v.1.15,2013-03-17 20:44:00,
2013-03-17 16:49:00,70.0,53.1,29.92,SE,139,3.0,4.0,55,0.00,,,0.00,Wunderground v.1.15,2013-03-17 20:49:00,
2013-03-17 16:54:00,69.9,53.5,29.93,South,186,0.0,3.0,56,0.00,,,0.00,Wunderground v.1.15,2013-03-17 20:54:00,
2013-03-17 16:59:00,69.6,53.7,29.93,SSE,147,0.0,3.0,57,0.00,,,0.00,Wunderground v.1.15,2013-03-17 20:59:00,
2013-03-17 17:04:00,69.3,53.9,29.93,South,188,2.0,5.0,58,0.00,,,0.00,Wunderground v.1.15,2013-03-17 21:04:00,
2013-03-17 17:09:00,69.0,55.0,29.93,SSW,202,1.0,5.0,61,0.00,,,0.00,Wunderground v.1.15,2013-03-17 21:09:00,
2013-03-17 17:14:00,68.8,54.8,29.93,SSE,165,0.0,4.0,61,0.00,,,0.00,Wunderground v.1.15,2013-03-17 21:14:00,
2013-03-17 17:19:00,68.6,54.6,29.93,West,281,0.0,5.0,61,0.00,,,0.00,Wunderground v.1.15,2013-03-17 21:19:00,
2013-03-17 17:24:00,68.2,54.2,29.93,SSE,166,7.0,10.0,61,0.00,,,0.00,Wunderground v.1.15,2013-03-17 21:24:00,
2013-03-17 17:29:00,67.6,54.6,29.93,SSW,205,0.0,12.0,63,0.00,,,0.00,Wunderground v.1.15,2013-03-17 21:29:00,
2013-03-17 17:34:00,67.2,54.2,29.93,SSE,167,3.0,8.0,63,0.00,,,0.00,Wunderground v.1.15,2013-03-17 21:34:00,
2013-03-17 17:39:00,67.0,54.0,29.94,SSE,167,1.0,8.0,63,0.00,,,0.00,Wunderground v.1.15,2013-03-17 21:39:00,
2013-03-17 17:44:00,66.8,54.2,29.94,South,181,0.0,3.0,64,0.00,,,0.00,Wunderground v.1.15,2013-03-17 21:44:00,
2013-03-17 17:49:00,66.6,54.0,29.93,North,360,0.0,10.0,64,0.00,,,0.00,Wunderground v.1.15,2013-03-17 21:49:00,
2013-03-17 17:54:00,66.4,53.8,29.94,SSE,161,0.0,6.0,64,0.00,,,0.00,Wunderground v.1.15,2013-03-17 21:54:00,
2013-03-17 17:59:00,66.3,53.8,29.94,South,186,0.0,1.0,64,0.00,,,0.00,Wunderground v.1.15,2013-03-17 21:59:00,
2013-03-17 18:04:00,66.2,53.7,29.94,South,186,0.0,1.0,64,0.00,,,0.00,Wunderground v.1.15,2013-03-17 22:04:00,
2013-03-17 18:10:00,66.1,53.6,29.94,South,181,1.0,1.0,64,0.00,,,0.00,Wunderground v.1.15,2013-03-17 22:10:00,
2013-03-17 18:15:00,65.9,53.4,29.94,ESE,107,2.0,2.0,64,0.00,,,0.00,Wunderground v.1.15,2013-03-17 22:15:00,
2013-03-17 18:20:00,65.8,53.7,29.94,WNW,289,0.0,1.0,65,0.00,,,0.00,Wunderground v.1.15,2013-03-17 22:20:00,
2013-03-17 18:25:00,65.7,53.2,29.94,SE,130,0.0,2.0,64,0.00,,,0.00,Wunderground v.1.15,2013-03-17 22:25:00,
2013-03-17 18:30:00,65.5,53.4,29.95,SE,130,0.0,1.0,65,0.00,,,0.00,Wunderground v.1.15,2013-03-17 22:30:00,
2013-03-17 18:35:00,65.4,53.3,29.94,South,184,0.0,4.0,65,0.00,,,0.00,Wunderground v.1.15,2013-03-17 22:35:00,
2013-03-17 18:40:00,65.2,53.1,29.94,SSE,164,0.0,1.0,65,0.00,,,0.00,Wunderground v.1.15,2013-03-17 22:40:00,
2013-03-17 18:45:00,65.1,53.0,29.95,SSE,157,0.0,2.0,65,0.00,,,0.00,Wunderground v.1.15,2013-03-17 22:45:00,
2013-03-17 18:50:00,65.0,53.4,29.95,South,172,0.0,0.0,66,0.00,,,0.00,Wunderground v.1.15,2013-03-17 22:50:00,
2013-03-17 18:55:00,64.8,53.2,29.95,SSE,161,0.0,2.0,66,0.00,,,0.00,Wunderground v.1.15,2013-03-17 22:55:00,
2013-03-17 19:00:00,64.6,53.0,29.94,South,169,2.0,2.0,66,0.00,,,0.00,Wunderground v.1.15,2013-03-17 23:00:00,
2013-03-17 19:05:00,64.5,52.5,29.95,SSE,163,1.0,4.0,65,0.00,,,0.00,Wunderground v.1.15,2013-03-17 23:05:00,
2013-03-17 19:10:00,64.4,52.8,29.95,South,173,1.0,2.0,66,0.00,,,0.00,Wunderground v.1.15,2013-03-17 23:10:00,
2013-03-17 19:15:00,64.2,52.6,29.95,South,169,0.0,3.0,66,0.00,,,0.00,Wunderground v.1.15,2013-03-17 23:15:00,
2013-03-17 19:20:00,64.0,52.4,29.95,SSE,166,4.0,4.0,66,0.00,,,0.00,Wunderground v.1.15,2013-03-17 23:20:00,
2013-03-17 19:25:00,63.8,52.2,29.95,South,176,0.0,5.0,66,0.00,,,0.00,Wunderground v.1.15,2013-03-17 23:25:00,
2013-03-17 19:30:00,63.7,52.1,29.96,South,173,0.0,2.0,66,0.00,,,0.00,Wunderground v.1.15,2013-03-17 23:30:00,
2013-03-17 19:35:00,63.5,51.9,29.96,South,169,1.0,5.0,66,0.00,,,0.00,Wunderground v.1.15,2013-03-17 23:35:00,
2013-03-17 19:40:00,63.3,51.7,29.96,South,170,2.0,2.0,66,0.00,,,0.00,Wunderground v.1.15,2013-03-17 23:40:00,
2013-03-17 19:45:00,63.2,51.6,29.97,South,169,0.0,6.0,66,0.00,,,0.00,Wunderground v.1.15,2013-03-17 23:45:00,
2013-03-17 19:50:00,63.0,51.5,29.98,South,186,0.0,1.0,66,0.00,,,0.00,Wunderground v.1.15,2013-03-17 23:50:00,
2013-03-17 19:56:00,62.9,51.4,29.98,SSE,163,2.0,4.0,66,0.00,,,0.00,Wunderground v.1.15,2013-03-17 23:56:00,
2013-03-17 20:01:00,62.8,51.3,29.98,SE,125,0.0,1.0,66,0.00,,,0.00,Wunderground v.1.15,2013-03-18 00:01:00,
2013-03-17 20:06:00,62.6,51.1,29.98,SE,144,0.0,1.0,66,0.00,,,0.00,Wunderground v.1.15,2013-03-18 00:06:00,
2013-03-17 20:11:00,62.4,50.9,29.99,SSE,160,1.0,1.0,66,0.00,,,0.00,Wunderground v.1.15,2013-03-18 00:11:00,
2013-03-17 20:16:00,62.3,50.4,29.99,South,184,0.0,4.0,65,0.00,,,0.00,Wunderground v.1.15,2013-03-18 00:16:00,
2013-03-17 20:21:00,62.1,50.2,29.99,South,170,0.0,3.0,65,0.00,,,0.00,Wunderground v.1.15,2013-03-18 00:21:00,
2013-03-17 20:26:00,62.0,50.1,29.99,South,182,1.0,4.0,65,0.00,,,0.00,Wunderground v.1.15,2013-03-18 00:26:00,
2013-03-17 20:31:00,62.0,50.1,29.99,SSE,165,0.0,2.0,65,0.00,,,0.00,Wunderground v.1.15,2013-03-18 00:31:00,
2013-03-17 20:36:00,61.9,50.0,29.99,South,188,4.0,5.0,65,0.00,,,0.00,Wunderground v.1.15,2013-03-18 00:36:00,
2013-03-17 20:42:00,61.9,50.0,29.99,SSE,161,1.0,5.0,65,0.00,,,0.00,Wunderground v.1.15,2013-03-18 00:42:00,
2013-03-17 20:47:00,61.8,49.9,30.00,SSE,161,2.0,5.0,65,0.00,,,0.00,Wunderground v.1.15,2013-03-18 00:47:00,
2013-03-17 20:52:00,61.7,50.2,30.01,South,175,0.0,6.0,66,0.00,,,0.00,Wunderground v.1.15,2013-03-18 00:52:00,
2013-03-17 20:57:00,61.7,50.2,30.01,SSE,167,0.0,6.0,66,0.00,,,0.00,Wunderground v.1.15,2013-03-18 00:57:00,
2013-03-17 21:02:00,61.5,50.8,30.01,South,172,1.0,2.0,68,0.00,,,0.00,Wunderground v.1.15,2013-03-18 01:02:00,
2013-03-17 21:07:00,61.2,50.9,30.01,South,171,0.0,2.0,69,0.00,,,0.00,Wunderground v.1.15,2013-03-18 01:07:00,
2013-03-17 21:12:00,60.8,51.3,30.01,NE,53,0.0,2.0,71,0.00,,,0.00,Wunderground v.1.15,2013-03-18 01:12:00,
2013-03-17 21:17:00,60.3,51.6,30.02,NE,53,0.0,2.0,73,0.00,,,0.00,Wunderground v.1.15,2013-03-18 01:17:00,
2013-03-17 21:22:00,59.7,51.4,30.02,ESE,111,0.0,1.0,74,0.00,,,0.00,Wunderground v.1.15,2013-03-18 01:22:00,
2013-03-17 21:27:00,59.3,51.0,30.02,ESE,111,0.0,1.0,74,0.00,,,0.00,Wunderground v.1.15,2013-03-18 01:27:00,
2013-03-17 21:32:00,58.8,50.9,30.03,ESE,111,0.0,0.0,75,0.00,,,0.00,Wunderground v.1.15,2013-03-18 01:32:00,
2013-03-17 21:37:00,58.5,51.0,30.03,NE,51,0.0,4.0,76,0.00,,,0.00,Wunderground v.1.15,2013-03-18 01:37:00,
2013-03-17 21:42:00,57.8,50.6,30.03,NNE,33,2.0,5.0,77,0.00,,,0.00,Wunderground v.1.15,2013-03-18 01:42:00,
2013-03-17 21:47:00,57.2,50.4,30.03,NE,40,0.0,5.0,78,0.00,,,0.00,Wunderground v.1.15,2013-03-18 01:47:00,
2013-03-17 21:52:00,56.6,50.2,30.03,SSW,192,3.0,5.0,79,0.00,,,0.00,Wunderground v.1.15,2013-03-18 01:52:00,
2013-03-17 21:57:00,55.9,49.5,30.04,NE,49,0.0,5.0,79,0.00,,,0.00,Wunderground v.1.15,2013-03-18 01:57:00,
2013-03-17 22:02:00,55.3,49.2,30.04,ESE,107,1.0,3.0,80,0.00,,,0.00,Wunderground v.1.15,2013-03-18 02:02:00,
2013-03-17 22:07:00,54.8,49.1,30.04,South,174,0.0,3.0,81,0.00,,,0.00,Wunderground v.1.15,2013-03-18 02:07:00,
2013-03-17 22:12:00,54.6,49.2,30.04,ENE,67,0.0,2.0,82,0.00,,,0.00,Wunderground v.1.15,2013-03-18 02:12:00,
2013-03-17 22:17:00,54.4,49.0,30.05,SSW,198,2.0,2.0,82,0.00,,,0.00,Wunderground v.1.15,2013-03-18 02:17:00,
2013-03-17 22:22:00,54.1,48.7,30.05,SSE,164,0.0,3.0,82,0.00,,,0.00,Wunderground v.1.15,2013-03-18 02:22:00,
2013-03-17 22:27:00,53.8,48.4,30.05,ENE,76,1.0,4.0,82,0.00,,,0.00,Wunderground v.1.15,2013-03-18 02:27:00,
2013-03-17 22:32:00,53.5,48.5,30.06,South,181,1.0,2.0,83,0.00,,,0.00,Wunderground v.1.15,2013-03-18 02:32:00,
2013-03-17 22:37:00,53.3,48.3,30.06,ENE,69,0.0,2.0,83,0.00,,,0.00,Wunderground v.1.15,2013-03-18 02:37:00,
2013-03-17 22:42:00,53.1,48.4,30.06,ENE,62,0.0,1.0,84,0.00,,,0.00,Wunderground v.1.15,2013-03-18 02:42:00,
2013-03-17 22:48:00,52.9,48.2,30.06,NE,38,6.0,6.0,84,0.00,,,0.00,Wunderground v.1.15,2013-03-18 02:48:00,
2013-03-17 22:53:00,52.7,48.0,30.06,South,175,2.0,4.0,84,0.00,,,0.00,Wunderground v.1.15,2013-03-18 02:53:00,
2013-03-17 22:58:00,52.4,47.7,30.07,South,170,0.0,4.0,84,0.00,,,0.00,Wunderground v.1.15,2013-03-18 02:58:00,
2013-03-17 23:03:00,52.1,47.4,30.07,SSE,167,0.0,2.0,84,0.00,,,0.00,Wunderground v.1.15,2013-03-18 03:03:00,
2013-03-17 23:08:00,51.8,47.4,30.07,SE,145,4.0,6.0,85,0.00,,,0.00,Wunderground v.1.15,2013-03-18 03:08:00,
2013-03-17 23:13:00,51.5,47.1,30.07,SSE,166,0.0,3.0,85,0.00,,,0.00,Wunderground v.1.15,2013-03-18 03:13:00,
2013-03-17 23:18:00,51.3,47.3,30.07,South,177,3.0,6.0,86,0.00,,,0.00,Wunderground v.1.15,2013-03-18 03:18:00,
2013-03-17 23:23:00,51.0,47.0,30.07,South,176,3.0,4.0,86,0.00,,,0.00,Wunderground v.1.15,2013-03-18 03:23:00,
2013-03-17 23:28:00,50.7,46.7,30.07,South,172,0.0,5.0,86,0.00,,,0.00,Wunderground v.1.15,2013-03-18 03:28:00,
2013-03-17 23:33:00,50.4,46.7,30.07,South,172,0.0,2.0,87,0.00,,,0.00,Wunderground v.1.15,2013-03-18 03:33:00,
2013-03-17 23:38:00,50.2,46.5,30.07,SSE,148,1.0,3.0,87,0.00,,,0.00,Wunderground v.1.15,2013-03-18 03:38:00,
2013-03-17 23:43:00,49.9,46.2,30.08,SSE,155,1.0,3.0,87,0.00,,,0.00,Wunderground v.1.15,2013-03-18 03:43:00,
2013-03-17 23:48:00,49.7,46.0,30.08,SSE,155,1.0,3.0,87,0.00,,,0.00,Wunderground v.1.15,2013-03-18 03:48:00,
2013-03-17 23:53:00,49.3,45.9,30.08,SSE,167,2.0,5.0,88,0.00,,,0.00,Wunderground v.1.15,2013-03-18 03:53:00,
2013-03-17 23:58:00,49.0,45.6,30.07,South,182,0.0,6.0,88,0.00,,,0.00,Wunderground v.1.15,2013-03-18 03:58:00,